This is the latest recevied weather packets stored in our database for station/object KC7WRB. If no packets are shown the sender has not sent any weather packets the latest 10 day(s).
| Time | Temp. | Humidity | Pressure | Rain* | Wind** | Luminosity | Snow |
|---|---|---|---|---|---|---|---|
| 1777655108 | 17.22° C | 22% | 1020.8 hPa | 0 mm | - | 709 W/m² | - |
| 1777654805 | 16.67° C | 24% | 1020.7 hPa | 0 mm | - | 694 W/m² | - |
| 1777654503 | 16.67° C | 23% | 1020.8 hPa | 0 mm | - | 682 W/m² | - |
| 1777654200 | 16.11° C | 23% | 1020.9 hPa | 0 mm | - | 664 W/m² | - |
| 1777653898 | 16.67° C | 24% | 1021 hPa | 0 mm | - | 650 W/m² | - |
| 1777653594 | 15.56° C | 26% | 1021 hPa | 0 mm | - | 632 W/m² | - |
| 1777653290 | 15.56° C | 25% | 1020.8 hPa | 0 mm | - | 619 W/m² | - |
| 1777652987 | 15.56° C | 25% | 1020.9 hPa | 0 mm | - | 597 W/m² | - |
| 1777652683 | 15° C | 27% | 1020.8 hPa | 0 mm | - | 581 W/m² | - |
| 1777652381 | 15° C | 28% | 1020.9 hPa | 0 mm | - | 567 W/m² | - |
| 1777652077 | 14.44° C | 28% | 1021 hPa | 0 mm | - | 546 W/m² | - |
| 1777651774 | 13.89° C | 29% | 1021 hPa | 0 mm | - | 469 W/m² | - |
| 1777651471 | 13.89° C | 29% | 1021.2 hPa | 0 mm | - | 508 W/m² | - |
| 1777651168 | 13.89° C | 30% | 1021 hPa | 0 mm | - | 494 W/m² | - |
| 1777650865 | 13.33° C | 31% | 1021.2 hPa | 0 mm | - | 472 W/m² | - |
| 1777650562 | 13.89° C | 32% | 1021 hPa | 0 mm | - | 395 W/m² | - |
| 1777650259 | 12.78° C | 34% | 1020.8 hPa | 0 mm | - | 429 W/m² | - |
| 1777649956 | 12.78° C | 34% | 1020.9 hPa | 0 mm | - | 411 W/m² | - |
| 1777649654 | 13.33° C | 33% | 1021.2 hPa | 0 mm | - | 392 W/m² | - |
| 1777649349 | 13.33° C | 33% | 1021 hPa | 0 mm | - | 372 W/m² | - |
| 1777649047 | 13.33° C | 34% | 1021 hPa | 0 mm | - | 353 W/m² | - |
| 1777648744 | 12.78° C | 34% | 1020.9 hPa | 0 mm | - | 335 W/m² | - |
| 1777648440 | 12.22° C | 35% | 1020.8 hPa | 0 mm | - | 318 W/m² | - |
| 1777648136 | 11.67° C | 35% | 1021 hPa | 0 mm | - | 283 W/m² | - |
| 1777647833 | 11.11° C | 36% | 1020.9 hPa | 0 mm | - | 275 W/m² | - |
* Rain latest hour (hover to see other rain measurements)
** Current wind speed in m/s (hover to see current wind gust speed)